This is the latest recevied weather packets stored in our database for station/object KC3WWU. If no packets are shown the sender has not sent any weather packets the latest 10 day(s).
| Time | Temp. | Humidity | Pressure | Rain* | Wind** | Luminosity | Snow |
|---|---|---|---|---|---|---|---|
| 1777815445 | 5.56° C | 70% | 1013.9 hPa | 0 mm | - | 389 W/m² | - |
| 1777815143 | 5.56° C | 72% | 1013.9 hPa | 0 mm | - | 345 W/m² | - |
| 1777814839 | 5° C | 70% | 1013.9 hPa | 0 mm | - | 360 W/m² | - |
| 1777814535 | 5° C | 73% | 1013.8 hPa | 0 mm | - | 345 W/m² | - |
| 1777814232 | 5° C | 73% | 1013.8 hPa | 0 mm | - | 332 W/m² | - |
| 1777813929 | 4.44° C | 73% | 1013.8 hPa | 0 mm | - | 316 W/m² | - |
| 1777813627 | 4.44° C | 75% | 1013.8 hPa | 0 mm | - | 299 W/m² | - |
| 1777813324 | 3.89° C | 77% | 1013.9 hPa | 0 mm | - | 271 W/m² | - |
| 1777813021 | 3.89° C | 79% | 1013.9 hPa | 0 mm | - | 198 W/m² | - |
| 1777812719 | 3.89° C | 79% | 1013.8 hPa | 0 mm | - | 170 W/m² | - |
| 1777812415 | 3.33° C | 81% | 1013.8 hPa | 0 mm | - | 192 W/m² | - |
| 1777812113 | 2.78° C | 82% | 1014 hPa | 0 mm | - | 92 W/m² | - |
| 1777811811 | 2.78° C | 83% | 1013.8 hPa | 0 mm | - | 108 W/m² | - |
| 1777811509 | 2.78° C | 84% | 1014 hPa | 0 mm | - | 134 W/m² | - |
| 1777811204 | 2.22° C | 85% | 1013.9 hPa | 0 mm | - | 82 W/m² | - |
| 1777810902 | 2.22° C | 84% | 1013.9 hPa | 0 mm | - | 63 W/m² | - |
| 1777810598 | 1.67° C | 85% | 1013.6 hPa | 0 mm | - | 94 W/m² | - |
| 1777810296 | 1.67° C | 86% | 1013.5 hPa | 0 mm | - | 100 W/m² | - |
| 1777809991 | 1.67° C | 87% | 1013.8 hPa | 0 mm | - | 47 W/m² | - |
| 1777809689 | 1.11° C | 86% | 1013.5 hPa | 0 mm | - | 37 W/m² | - |
| 1777809386 | 1.11° C | 87% | 1013.4 hPa | 0 mm | - | 30 W/m² | - |
| 1777809084 | 0.56° C | 88% | 1013.4 hPa | 0 mm | - | 28 W/m² | - |
| 1777808782 | 0.56° C | 88% | 1013.4 hPa | 0 mm | - | 27 W/m² | - |
| 1777808478 | 0.56° C | 89% | 1013.6 hPa | 0 mm | - | 31 W/m² | - |
| 1777808176 | 0° C | 89% | 1013.5 hPa | 0 mm | - | 25 W/m² | - |
* Rain latest hour (hover to see other rain measurements)
** Current wind speed in m/s (hover to see current wind gust speed)